Location: DARK SKY Beskydy - Park tmavé oblohy, www.darkskybeskydy.cz
(49.4926°N, 18.5016°E)
Time: 05:04:56
(UTC+01:00)

N. Korean satellite - Pass Details

Date: 08 December 2022
Orbit: 407 x 441 km, 97.3° (Epoch: 05 February)

Event Time Altitude Azimuth Distance (km) Brightness Sun altitude
Rises 04:54:11 0° 17° (NNE) 2,512 10.3 -24.0°
Reaches altitude 10° 04:56:18 10° 23° (NNE) 1,624 9.4 -23.7°
Maximum altitude 04:59:42 50° 100° (E) 591 7.3 -23.1°
Drops below altitude 10° 05:03:02 10° 177° (S) 1,582 9.3 -22.6°
Sets 05:05:04 0° 182° (S) 2,438 10.2 -22.3°
